OH2MUI Weather Reports


time (UTC)temp
C
wind
direction
speed
KPH
gust
KPH
rain 1hr
cm
rain 24hr
cm
rain mn
cm
humidity
%
barometer
mb
20260503201544 11 333 0.0 4.8 0.00 0.00 0.00 62 1009.1
20260503195729 11 333 0.0 4.8 0.00 0.00 0.00 63 1009.2
20260503194011 12 315 0.0 4.8 0.00 0.00 0.00 63 1009.2
20260503192354 12 0 0.0 4.8 0.00 0.00 0.00 64 1009.1
20260503192349 12 0 0.0 4.8 0.00 0.00 0.00 64 1009.1
20260503190424 12 6 0.0 3.2 0.00 0.00 0.00 64 1009.1
20260503184504 13 335 0.0 4.8 0.00 0.00 0.00 66 1008.9
20260503182614 13 90 0.0 1.6 0.00 0.00 0.00 68 1008.8
20260503180709 13 45 0.0 1.6 0.00 0.00 0.00 69 1008.8
20260503175039 13 124 0.0 1.6 0.00 0.00 0.00 67 1008.7
20260503173409 13 90 0.0 1.6 0.00 0.00 0.00 65 1008.7
20260503171804 14 161 0.0 1.6 0.00 0.00 0.00 64 1008.6
20260503130515 15 298 1.6 8.0 0.00 0.00 0.00 62 1009.2
20260503110124 11 164 0.0 4.8 0.00 0.00 0.00 69 1008.3
20260503080320 11 164 0.0 4.8 0.00 0.00 0.00 69 1008.3
20260503080312 11 164 0.0 4.8 0.00 0.00 0.00 69 1008.3
20260503072539 11 164 0.0 4.8 0.00 0.00 0.00 69 1008.3
20260503070738 11 164 0.0 4.8 0.00 0.00 0.00 69 1008.3
20260503054149 11 164 0.0 4.8 0.00 0.00 0.00 69 1008.3
20260503052312 11 164 0.0 4.8 0.00 0.00 0.00 69 1008.3
20260503050449 11 164 0.0 4.8 0.00 0.00 0.00 69 1008.3
20260503044709 11 164 0.0 4.8 0.00 0.00 0.00 69 1008.3
20260503043101 11 164 0.0 4.8 0.00 0.00 0.00 69 1008.3
20260503043049 11 164 0.0 4.8 0.00 0.00 0.00 69 1008.3
20260503041139 11 164 0.0 4.8 0.00 0.00 0.00 69 1008.3
20260503035255 11 164 0.0 4.8 0.00 0.00 0.00 69 1008.3
20260503033624 11 164 0.0 4.8 0.00 0.00 0.00 69 1008.3
20260503031709 11 164 0.0 4.8 0.00 0.00 0.00 69 1008.3
20260503025839 11 164 0.0 4.8 0.00 0.00 0.00 69 1008.3
20260503024024 11 164 0.0 4.8 0.00 0.00 0.00 69 1008.3
20260503022214 11 164 0.0 4.8 0.00 0.00 0.00 69 1008.3
20260503020224 11 164 0.0 4.8 0.00 0.00 0.00 69 1008.3
20260503014604 11 164 0.0 4.8 0.00 0.00 0.00 69 1008.3
20260503012829 11 164 0.0 4.8 0.00 0.00 0.00 69 1008.3
20260503011159 11 164 0.0 4.8 0.00 0.00 0.00 69 1008.3
20260503005339 11 164 0.0 4.8 0.00 0.00 0.00 69 1008.3
20260503003504 11 164 0.0 4.8 0.00 0.00 0.00 69 1008.3
20260503001832 11 164 0.0 4.8 0.00 0.00 0.00 69 1008.3
20260503000152 11 164 0.0 4.8 0.00 0.00 0.00 69 1008.3
20260502234553 11 164 0.0 4.8 0.00 0.00 0.00 69 1008.3
20260502234549 11 164 0.0 4.8 0.00 0.00 0.00 69 1008.3
20260502232559 11 164 0.0 4.8 0.00 0.00 0.00 69 1008.3
20260502230739 11 164 0.0 4.8 0.00 0.00 0.00 69 1008.3
20260502224824 11 164 0.0 4.8 0.00 0.00 0.00 69 1008.3
20260502223220 11 164 0.0 4.8 0.00 0.00 0.00 69 1008.3
20260502223212 11 164 0.0 4.8 0.00 0.00 0.00 69 1008.3
20260502221404 11 164 0.0 4.8 0.00 0.00 0.00 69 1008.3
20260502215424 11 164 0.0 4.8 0.00 0.00 0.00 69 1008.3
20260502213644 11 164 0.0 4.8 0.00 0.00 0.00 69 1008.3
20260502211749 11 164 0.0 4.8 0.00 0.00 0.00 69 1008.3
20260502210044 11 154 0.0 3.2 0.00 0.00 0.00 69 1008.5
20260502204354 11 180 0.0 4.8 0.00 0.00 0.00 68 1008.6
20260502202709 12 163 0.0 3.2 0.00 0.00 0.00 66 1008.8